Weather History for KICT - December, 2014

Change the Weather History Date:

Monday, December 22, 2014

  Actual Average Record
Temperature  
Mean Temperature 46 °F 32 °F  
Max Temperature 55 °F 42 °F 72 °F (1896)
Min Temperature 37 °F 23 °F -16 °F (1989)
Degree Days  
Heating Degree Days 19 33  
Month to date heating degree days 522 670  
Since 1 July heating degree days 1402 1546  
Cooling Degree Days 0 0  
Month to date cooling degree days 0 0  
Year to date cooling degree days 1849 1686  
Moisture  
Dew Point 40 °F    
Average Humidity 72    
Maximum Humidity 93    
Minimum Humidity 50    
Precipitation  
Precipitation 0.04 in 0.04 in 0.96 in (1932)
Month to date precipitation 1.20 0.91  
Year to date precipitation 25.51 32.35  
Snow  
Snow 0.00 in 0.20 in 6.60 in (2007)
Month to date snowfall 2.7 3.0  
Since 1 July snowfall 4.5 4.4  
Snow Depth 0.00 in    
Sea Level Pressure  
Sea Level Pressure 29.58 in    
Wind  
Wind Speed 10 mph (WSW)    
Max Wind Speed 22 mph    
Max Gust Speed 28 mph    
Visibility 6 miles    
Events Fog , Rain    
T = Trace of Precipitation, MM = Missing Value Source: NWS Daily Summary

Daily Weather History Graph

Daily Weather History Graph

Search for Another Location

Airport or City:

Trip Planner

Search our weather history database for the weather conditions in past years. The results will help you decide how hot, cold, wet, or windy it might be!

Date:

Astronomy

Dec. 22, 2014 Rise Set
Actual Time 7:41 AM CST 5:15 PM CST
Civil Twilight 7:12 AM CST 5:44 PM CST
Nautical Twilight 6:39 AM CST 6:17 PM CST
Astronomical Twilight 6:07 AM CST 6:49 PM CST
Moon 7:57 AM CST (12/22) 6:23 PM CST (12/22)
Length of Visible Light 10h 32m
Length of Day
9h 33m
New Moon, 1% of the Moon is Illuminated
Dec 22
New Moon
Dec 28
First Quarter
Jan 4
Full
Jan 13
Last Quarter
Jan 20
New

Hourly Weather History & Observations

Time (CST) Temp. Windchill Dew Point Humidity Pressure Visibility Wind Dir Wind Speed Gust Speed Precip Events Conditions
12:07 AM 45.0 °F 38.2 °F 42.1 °F 90% 29.63 in 2.5 mi SSE 15.0 mph - 0.00 in   Light Drizzle
12:25 AM 45.0 °F 38.9 °F 42.1 °F 90% 29.62 in 1.8 mi SSE 12.7 mph - 0.00 in Rain Light Rain
12:53 AM 45.0 °F 39.3 °F 42.1 °F 90% 29.62 in 2.5 mi SSE 11.5 mph - 0.00 in Rain Light Rain
1:53 AM 45.0 °F 39.3 °F 43.0 °F 93% 29.60 in 2.5 mi SSE 11.5 mph - 0.01 in   Light Drizzle
2:53 AM 45.0 °F 39.3 °F 43.0 °F 93% 29.58 in 2.0 mi SSE 11.5 mph - 0.00 in   Light Drizzle
3:53 AM 45.0 °F 40.1 °F 43.0 °F 93% 29.58 in 2.0 mi SSE 9.2 mph - 0.01 in   Light Drizzle
4:53 AM 45.0 °F 40.1 °F 43.0 °F 93% 29.56 in 2.5 mi SSE 9.2 mph - 0.01 in   Light Drizzle
5:06 AM 45.0 °F 41.2 °F 43.0 °F 93% 29.55 in 3.0 mi SSE 6.9 mph - 0.00 in   Light Drizzle
5:53 AM 45.0 °F 40.1 °F 43.0 °F 93% 29.56 in 4.0 mi SSE 9.2 mph - 0.01 in   Light Drizzle
6:53 AM 46.0 °F 43.9 °F 44.1 °F 93% 29.57 in 5.0 mi SSW 4.6 mph - 0.00 in   Light Drizzle
7:48 AM 44.6 °F 43.1 °F 42.8 °F 93% 29.56 in 1.5 mi South 3.5 mph - 0.00 in Rain Light Rain
7:49 AM 45.0 °F 43.5 °F 43.0 °F 93% 29.56 in 1.0 mi South 3.5 mph - 0.00 in Rain Light Rain
8:19 AM 46.0 °F 44.8 °F 44.1 °F 93% 29.56 in 0.8 mi SW 3.5 mph - 0.00 in   Overcast
8:53 AM 46.0 °F 43.1 °F 44.1 °F 93% 29.57 in 0.5 mi SW 5.8 mph - 0.00 in Fog Fog
9:00 AM 46.0 °F 43.9 °F 44.1 °F 93% 29.57 in 0.2 mi SW 4.6 mph - N/A Fog Fog
9:10 AM 46.0 °F 43.1 °F 44.1 °F 93% 29.57 in 0.5 mi WSW 5.8 mph - N/A Fog Fog
9:21 AM 46.9 °F - 45.0 °F 93% 29.57 in 1.0 mi West 5.8 mph - N/A   Overcast
9:30 AM 46.9 °F - 44.1 °F 90% 29.57 in 2.0 mi WSW 6.9 mph - N/A   Overcast
9:48 AM 46.4 °F 42.4 °F 44.6 °F 93% 29.58 in 3.0 mi West 8.1 mph - N/A   Overcast
9:51 AM 48.2 °F - 44.6 °F 87% 29.58 in 3.0 mi West 8.1 mph - N/A   Overcast
9:53 AM 48.0 °F - 45.0 °F 89% 29.58 in 4.0 mi West 9.2 mph - N/A   Overcast
10:34 AM 48.0 °F - 44.1 °F 86% 29.58 in 7.0 mi WNW 10.4 mph - N/A   Overcast
10:53 AM 48.9 °F - 44.1 °F 83% 29.58 in 9.0 mi WNW 11.5 mph - N/A   Mostly Cloudy
11:00 AM 48.9 °F - 44.1 °F 83% 29.57 in 10.0 mi WNW 10.4 mph - N/A   Mostly Cloudy
11:38 AM 50.0 °F - 41.0 °F 71% 29.57 in 10.0 mi NNW 17.3 mph 21.9 mph N/A   Mostly Cloudy
11:53 AM 50.0 °F - 39.2 °F 66% 29.56 in 10.0 mi NNW 16.1 mph 26.5 mph N/A   Mostly Cloudy
12:53 PM 51.1 °F - 39.9 °F 66% 29.54 in 10.0 mi NNW 17.3 mph - N/A   Mostly Cloudy
1:26 PM 50.0 °F - 39.0 °F 66% 29.54 in 10.0 mi NNW 15.0 mph - N/A   Overcast
1:53 PM 50.0 °F - 39.0 °F 66% 29.54 in 10.0 mi NW 11.5 mph - N/A   Mostly Cloudy
2:53 PM 54.0 °F - 37.9 °F 55% 29.54 in 10.0 mi NW 17.3 mph 25.3 mph N/A   Scattered Clouds
3:53 PM 53.1 °F - 35.1 °F 50% 29.55 in 10.0 mi NW 10.4 mph - N/A   Mostly Cloudy
4:53 PM 51.1 °F - 35.1 °F 54% 29.55 in 10.0 mi WNW 6.9 mph - N/A   Scattered Clouds
5:53 PM 42.1 °F 38.4 °F 34.0 °F 73% 29.58 in 10.0 mi WSW 5.8 mph - N/A   Scattered Clouds
6:53 PM 39.0 °F 34.0 °F 32.0 °F 76% 29.60 in 10.0 mi West 6.9 mph - N/A   Scattered Clouds
7:53 PM 37.9 °F 31.5 °F 32.0 °F 79% 29.62 in 10.0 mi WSW 9.2 mph - N/A   Scattered Clouds
8:53 PM 39.9 °F 33.9 °F 33.1 °F 77% 29.63 in 10.0 mi West 9.2 mph - N/A   Scattered Clouds
9:53 PM 43.0 °F 36.8 °F 32.0 °F 65% 29.65 in 10.0 mi West 11.5 mph - N/A   Scattered Clouds
10:53 PM 42.1 °F 35.2 °F 28.9 °F 60% 29.66 in 10.0 mi WNW 12.7 mph - N/A   Scattered Clouds
11:53 PM 39.9 °F 33.9 °F 28.0 °F 63% 29.68 in 10.0 mi West 9.2 mph - N/A   Scattered Clouds